Location: Heiligenberg
(48.5381°N, 7.3897°E)
Time: 19:44:33
(UTC+00:00)

EO 1 Del DPAF - Pass Details

Date: 26 May 2022
Orbit: 461 x 465 km, 98.0° (Epoch: 02 July)

Event Time Altitude Azimuth Distance (km) Brightness Sun altitude
Rises 02:02:17 0° 13° (NNE) 2,541 8.0 -12.3°
Reaches altitude 10° 02:04:22 10° 12° (NNE) 1,655 6.9 -12.0°
Maximum altitude 02:07:55 81° 285° (WNW) 485 3.0 -11.7°
Enters shadow 02:10:35 16° 199° (SSW) 1,286 4.6 -11.4°
